Погода в Томаровке

Россия / Белгородская область     50°40′56″N   36°14′06″E
темп.,
°C
ветер,
м/с
пор.,
м/с
влажн.,
%
обл.,
%
осадки,
мм/ч
давл.,
гПа
погр.,
м
21 января, пт
пт2100:00−5ю71594100 0.4 1009472
03:00−4ю61495100 0.8 1006483
06:00−3ююз51297100 2.1 1003654
09:00−3юз5119595 2.8 1004472
12:00−3зюз61092100 0.2 1004916
15:00−4юз7139197 0.3 1005785
18:00−5юз8159199 0.1 1005667
21:00−5юз8159297 0.3 1005657
22 января, сб
сб2200:00−5юз7139499 0.2 1006676
03:00−6юз71393100 0.3 1007469
06:00−7ююз6129496 0.1 1007388
09:00−7ююз5119586 0.3 1008341
12:00−5ююз5894100 0.1 1010406
15:00−4юз4690100 0.3 1010565
18:00−6ю369796 0.2 1012110
21:00−10юз249878 0.3 101452
23 января, вс
вс2300:00−14ю22100100 0.0 101618
03:00−16ююв22100100 0.1 101810
06:00−17вюв22100100 0.1 101916
09:00−12вюв34100100 0.1 102196
12:00−7всв3496100 0.1 1022244
15:00−6св4894100 0.1 1022341
18:00−8св51193100 0.0 1024303
21:00−8ссв61392100 0.0 1024361
24 января, пн
пн2400:00−7ссв71693100 0.1 1023520
03:00−7ссв71493100 0.7 1022452
06:00−5св71495100 0.4 1022510
09:00−5всв6119397 0.8 1024434
12:00−5св6993100 0.3 1025411
15:00−5всв5993100 0.3 1025410
18:00−7св5995100 0.0 1025270
21:00−8св4896100 0.1 1026223
25 января, вт
вт2500:00−8св3796100 0.1 1025195
03:00−9св369686 0.3 1024160
06:00−10всв359692 0.1 1024109
09:00−9в2596100 0.3 1024126
12:00−6юв239499 0.1 1023215
15:00−5ююв2393100 0.1 1021356
18:00−8ююв229895 0.1 102216
21:00−6ю3697100 0.2 1022237